Weather History for PATA - November, 2012

Change the Weather History Date:

Saturday, November 17, 2012

  Actual Average Record
Temperature  
Mean Temperature -10 °F -  
Max Temperature 0 °F 5 °F 28 °F (1964)
Min Temperature -20 °F -9 °F -47 °F (1956)
Degree Days  
Heating Degree Days 75    
Moisture  
Dew Point -18 °F    
Average Humidity 68    
Maximum Humidity 79    
Minimum Humidity 57    
Precipitation  
Precipitation 0.00 in - - ()
Snow  
Snow 0.00 in - - ()
Snow Depth 4.00 in    
Sea Level Pressure  
Sea Level Pressure 29.91 in    
Wind  
Wind Speed 5 mph (NNE)    
Max Wind Speed 10 mph    
Max Gust Speed 17 mph    
Visibility 10 miles    
Events      
Averages and records for this station are not official NWS values.
T = Trace of Precipitation, MM = Missing Value Source: NWS Daily Summary

Daily Weather History Graph

Daily Weather History Graph

Search for Another Location

Airport or City:

Trip Planner

Search our weather history database for the weather conditions in past years. The results will help you decide how hot, cold, wet, or windy it might be!

Date:

Astronomy

Nov. 17, 2012 Rise Set
Actual Time 9:56 AM AKST 3:49 PM AKST
Civil Twilight 8:50 AM AKST 4:55 PM AKST
Nautical Twilight 7:46 AM AKST 5:59 PM AKST
Astronomical Twilight 6:47 AM AKST 6:58 PM AKST
Moon 1:43 PM AKST (11/17) 8:23 PM AKST (11/17)
Length of Visible Light 8h 04m
Length of Day
5h 52m
Waxing Crescent, 21% of the Moon is Illuminated
Nov 17
Waxing Crescent
Nov 20
First Quarter
Nov 28
Full
Dec 6
Last Quarter
Dec 12
New

Hourly Weather History & Observations

Time (AKST) Temp. Windchill Dew Point Humidity Pressure Visibility Wind Dir Wind Speed Gust Speed Precip Events Conditions
12:52 AM -0.9 °F -8.9 °F -11.9 °F 60% 30.14 in 10.0 mi SE 3.5 mph - N/A   Clear
1:52 AM -2.9 °F -11.2 °F -13.0 °F 62% 30.11 in 10.0 mi Variable 3.5 mph - N/A   Clear
2:52 AM -5.1 °F - -15.0 °F 62% 30.09 in 10.0 mi Calm Calm - N/A   Clear
3:52 AM -7.1 °F -22.8 °F -16.1 °F 65% 30.08 in 10.0 mi South 8.1 mph - N/A   Clear
4:52 AM -8.0 °F -19.2 °F -16.1 °F 68% 30.06 in 10.0 mi NE 4.6 mph - N/A   Clear
5:52 AM -14.1 °F -26.3 °F -20.0 °F 75% 30.04 in 10.0 mi NW 4.6 mph - N/A   Clear
6:52 AM -17.0 °F -33.4 °F -24.0 °F 70% 30.02 in 10.0 mi NW 6.9 mph - N/A   Clear
7:52 AM -18.9 °F -34.0 °F -24.0 °F 78% 30.00 in 10.0 mi NW 5.8 mph - N/A   Clear
8:52 AM -20.9 °F -39.7 °F -27.9 °F 70% 29.98 in 10.0 mi NNE 8.1 mph - N/A   Partly Cloudy
9:52 AM -18.0 °F -33.0 °F -23.1 °F 78% 29.95 in 10.0 mi West 5.8 mph - N/A   Clear
10:52 AM -18.9 °F -35.8 °F -25.1 °F 74% 29.93 in 10.0 mi North 6.9 mph - N/A   Clear
11:52 AM -9.9 °F -19.2 °F -17.0 °F 71% 29.90 in 10.0 mi NNE 3.5 mph - N/A   Clear
12:52 PM -2.9 °F - -13.0 °F 62% 29.86 in 10.0 mi Calm Calm - N/A   Clear
1:52 PM -4.0 °F -20.2 °F -13.0 °F 65% 29.85 in 10.0 mi SSE 9.2 mph - N/A   Clear
2:52 PM -2.9 °F -19.8 °F -14.1 °F 59% 29.83 in 10.0 mi ESE 10.4 mph 17.3 mph N/A   Partly Cloudy
3:52 PM -4.0 °F -17.8 °F -15.0 °F 59% 29.82 in 10.0 mi East 6.9 mph - N/A   Partly Cloudy
4:52 PM -5.1 °F -15.8 °F -15.0 °F 62% 29.81 in 10.0 mi East 4.6 mph - N/A   Partly Cloudy
5:52 PM -16.1 °F - -20.9 °F 79% 29.82 in 10.0 mi Calm Calm - N/A   Partly Cloudy
6:52 PM -18.9 °F -34.0 °F -25.1 °F 74% 29.81 in 10.0 mi North 5.8 mph - N/A   Clear
7:52 PM -14.1 °F -23.9 °F -20.0 °F 75% 29.79 in 10.0 mi NW 3.5 mph - N/A   Clear
8:52 PM -11.9 °F -28.7 °F -18.9 °F 71% 29.78 in 10.0 mi WNW 8.1 mph - N/A   Clear
9:52 PM -0.9 °F -15.3 °F -13.0 °F 57% 29.76 in 10.0 mi SSE 8.1 mph - N/A   Clear
10:52 PM -9.0 °F -22.3 °F -17.0 °F 68% 29.76 in 10.0 mi ENE 5.8 mph - N/A   Clear
11:52 PM -11.0 °F - -18.9 °F 68% 29.76 in 10.0 mi Calm Calm - N/A   Clear